RH
76 76 72 72 75 76 76 76 76 76 76 77 78 78 79 79 76 76 77 77 73 68 68 70 74 75 61 54 61 66 68 62 63 72 74 78 87 92 88 43 43 46 35 31 35 39 27
77 70 73 71 74 70 72 73 76 78 78 78 78 78 80 78 77 78 78 78 71 68 72 73 75 73 61 68 60 77 70 63 66 73 75 74 76 84 87 41 39 34 34 36 38 34 27
73 73 72 71 72 72 75 75 77 80 80 79 78 78 77 79 79 77 76 75 70 70 72 74 76 45 60 66 63 79 76 71 72 76 78 73 79 94 59 38 31 27 40 44 37 33 34
72 72 74 75 75 76 76 76 80 80 80 79 78 78 78 80 81 80 76 74 74 67 69 71 70 48 65 59 60 48 52 59 70 77 80 78 78 75 49 31 28 35 40 55 40 38 41
76 72 76 76 76 77 77 78 77 81 81 81 82 81 80 81 83 83 78 74 72 70 70 65 52 51 56 57 51 47 52 54 74 69 69 57 61 45 38 41 44 42 59 52 48 35 39
74 75 77 78 77 76 77 78 78 76 80 82 83 85 84 83 84 84 77 71 68 65 54 31 29 50 44 47 42 44 52 56 68 63 68 68 57 50 42 49 61 42 34 41 48 36 38
74 72 78 80 80 79 78 79 78 80 78 80 83 85 86 86 83 82 66 57 52 48 42 48 43 42 44 44 40 51 55 58 57 66 56 49 64 79 37 34 34 25 24 37 41 37 42
71 73 78 80 81 80 80 80 81 77 79 80 83 86 86 83 82 78 67 49 58 63 50 37 39 42 38 39 48 51 43 60 57 54 45 57 59 41 38 33 36 30 30 43 39 34 34
72 74 76 79 82 82 81 82 82 80 80 83 86 85 86 84 80 67 51 58 57 54 57 38 37 35 42 42 46 42 35 39 40 48 43 54 44 33 32 39 36 37 36 40 41 33 28
72 73 76 79 82 83 84 86 85 82 81 84 87 82 84 80 66 51 57 52 55 56 85 49 33 35 32 42 48 33 36 41 39 43 41 48 40 33 37 38 43 41 37 31 35 38 63
74 75 76 79 81 84 87 86 85 86 82 86 88 82 82 74 54 52 58 52 56 64 88 36 34 26 32 38 38 41 38 36 40 39 48 58 54 50 48 47 43 47 38 33 34 38 64
76 78 76 79 82 86 88 88 87 88 84 89 89 82 74 56 56 58 56 59 63 89 74 59 38 35 34 33 35 36 40 34 38 40 42 50 47 54 53 41 42 40 42 34 31 44 86
77 77 77 80 83 86 87 88 87 87 87 91 86 81 58 42 62 57 59 68 93 88 40 50 46 36 35 37 35 39 42 43 54 71 56 46 50 53 47 52 46 43 43 89 88 76 88
77 77 78 80 84 85 86 88 87 87 90 91 82 80 67 49 56 60 67 67 76 45 49 40 39 36 39 37 38 35 39 44 40 42 47 77 78 60 47 56 62 48 48 90 78 85 86
76 78 82 83 83 84 85 87 87 87 91 90 76 68 58 61 60 64 69 94 82 55 43 45 39 38 38 35 37 36 42 45 44 42 58 45 67 51 52 49 50 49 76 50 81 70 83
79 81 83 81 80 81 84 86 87 87 91 89 70 60 58 53 60 69 75 72 62 46 44 41 42 38 38 37 36 36 39 44 46 39 39 39 64 52 48 51 50 48 43 73 85 73 59
81 81 79 80 84 87 87 87 87 87 90 81 75 60 59 56 65 64 93 66 45 39 44 45 43 38 35 38 36 41 43 50 47 48 43 46 57 62 53 50 47 56 58 44 47 49 72
82 80 78 84 87 87 87 88 88 88 89 84 74 72 62 66 73 62 68 42 52 44 47 47 46 40 35 36 39 43 47 57 49 49 48 48 49 75 55 51 49 49 48 41 72 57 50
83 81 82 86 87 88 88 88 88 88 87 75 66 52 65 61 71 63 53 48 48 46 49 46 44 44 40 40 52 45 49 59 51 57 64 55 47 74 72 66 58 57 44 43 40 55 62
84 84 85 86 88 88 88 88 88 88 87 79 65 74 67 55 47 42 47 46 51 59 50 46 44 44 41 41 43 48 48 63 63 58 66 64 47 47 63 42 53 65 52 49 48 83 58
84 85 85 87 88 88 88 88 88 88 87 77 61 62 62 70 52 48 47 44 44 53 52 48 48 45 46 46 41 44 47 56 61 67 58 57 65 70 56 43 43 48 47 46 56 52 61
85 85 86 89 89 89 88 86 88 88 87 71 72 60 55 49 47 50 56 49 44 49 46 46 50 45 43 45 46 46 44 46 48 63 54 54 68 68 58 43 48 54 47 43 42 42 42
85 87 88 90 91 90 89 86 86 88 85 67 64 58 59 62 49 48 45 44 44 48 53 46 46 48 49 53 50 51 50 47 49 54 49 54 63 74 78 57 57 55 45 46 47 41 38
86 87 90 91 92 91 90 85 84 86 87 77 71 68 60 50 48 42 46 46 46 50 52 47 49 52 60 49 48 57 62 52 51 52 51 58 57 69 88 74 80 47 44 45 49 43 40
85 88 90 90 91 92 91 86 83 84 84 77 73 76 66 58 42 46 48 49 51 54 55 53 52 57 54 60 63 58 63 65 61 63 65 61 64 74 86 76 55 42 50 49 51 53 44
82 87 90 92 94 93 92 89 85 84 82 84 82 80 76 66 51 45 49 54 58 56 60 58 59 57 64 63 57 71 56 51 74 85 72 63 68 81 76 85 80 53 44 40 46 65 51
84 90 94 93 95 94 94 92 88 85 84 86 88 82 85 72 58 57 56 58 56 58 59 60 62 71 69 69 74 72 60 55 56 62 89 87 84 89 87 89 66 49 44 47 70 67 52
92 94 94 92 92 91 92 95 93 88 85 86 92 85 90 82 72 65 59 63 64 63 65 68 70 71 72 78 72 67 69 62 70 56 66 75 86 87 74 82 83 54 54 64 62 56 56
90 87 86 86 86 88 90 90 95 91 88 86 92 82 77 89 85 70 67 68 65 66 67 66 70 62 73 76 77 74 76 70 64 67 60 68 55 63 60 67 54 49 54 51 53 59 68
Wind_Speed
15 16 15 16 17 16 15 13 12 12 12 12 13 14 14 15 17 18 16 12 9 6 5 7 9 9 5 1 6 8 4 5 4 1 9 6 7 2 11 19 18 17 10 6 6 3 10
16 17 17 17 16 16 15 14 12 12 12 12 13 14 14 15 16 17 14 10 7 7 6 7 8 7 5 5 5 8 6 3 5 4 5 9 5 3 9 15 17 13 5 3 3 3 5
16 17 17 17 16 16 15 15 14 13 13 12 13 14 14 15 16 15 12 8 5 5 8 10 9 5 12 4 1 3 3 2 3 2 4 6 8 8 9 20 13 9 6 2 6 4 4
16 17 17 17 16 16 16 15 15 14 14 14 13 14 15 15 16 15 10 8 9 7 9 9 6 5 3 1 4 4 4 0 6 4 2 5 12 19 24 5 6 7 7 6 3 5 3
15 16 17 17 17 17 17 16 16 15 14 14 14 14 15 14 15 14 11 10 10 11 10 10 5 5 5 4 2 2 1 3 4 1 4 7 13 6 3 10 6 8 6 7 4 6 5
15 16 17 17 17 17 18 18 17 16 14 14 13 14 15 15 12 13 13 7 9 12 6 8 6 4 7 7 3 3 5 4 2 5 9 9 8 5 4 4 6 7 10 8 7 7 5
14 15 17 17 18 18 18 18 18 17 16 14 12 13 14 15 14 11 9 3 4 1 6 7 6 7 6 4 2 4 1 1 4 3 2 3 2 3 5 4 6 9 13 9 7 1 5
13 15 17 18 18 19 19 19 19 19 17 15 14 12 13 14 15 14 5 3 2 1 3 4 5 6 5 4 3 4 4 4 3 2 3 7 7 4 8 3 3 8 11 9 6 3 3
13 15 17 18 19 19 20 20 20 20 18 16 15 13 11 13 12 5 5 3 3 3 3 3 2 3 2 5 1 5 5 8 7 3 9 2 3 8 4 7 11 6 4 6 7 4 3
13 14 16 18 19 19 20 19 19 21 19 17 15 13 11 12 2 0 3 2 2 2 1 8 6 3 2 3 1 2 2 1 3 2 7 5 10 6 7 7 7 4 10 6 13 6 4
14 15 16 17 18 19 20 20 20 20 20 17 14 12 10 5 3 1 3 2 1 2 4 9 5 3 4 3 6 3 2 3 7 2 2 3 8 9 7 6 8 0 8 5 5 3 6
13 14 16 17 17 18 19 20 20 19 20 17 12 11 9 3 3 2 1 2 2 4 3 6 2 6 4 7 3 2 1 2 1 7 10 4 3 4 5 2 3 3 3 2 2 4 3
13 13 15 16 17 17 18 19 20 20 20 17 10 10 6 2 2 2 2 2 5 6 1 7 4 6 7 6 5 3 4 6 4 5 3 3 4 2 4 3 2 3 2 3 5 5 5
12 13 14 16 17 17 18 19 20 20 20 17 9 8 2 2 0 1 3 1 8 4 2 1 3 10 3 7 1 5 2 5 10 6 3 3 3 8 10 4 2 4 2 5 4 4 4
11 12 13 14 16 17 18 19 19 20 19 17 6 2 2 2 1 1 2 7 2 4 3 6 6 4 3 3 2 2 6 6 5 9 5 3 3 3 3 4 3 4 5 0 4 1 5
10 10 11 13 15 16 19 19 19 19 19 12 3 2 2 1 1 2 4 4 2 1 2 4 5 2 5 5 6 7 6 5 6 6 5 6 3 1 0 3 2 4 2 2 3 2 1
10 10 11 12 12 13 15 19 19 20 20 6 3 3 1 3 1 1 5 3 3 2 4 5 5 4 4 4 3 4 5 3 7 8 8 5 2 2 2 5 3 2 2 1 2 3 3
10 11 10 9 11 11 14 16 19 20 23 1 2 2 2 3 2 3 2 3 3 2 2 1 3 4 5 5 4 4 3 1 4 4 4 4 3 2 3 3 2 2 3 2 5 2 1
11 11 10 9 10 12 12 14 17 18 15 4 3 1 3 2 1 2 2 2 1 3 2 1 2 3 3 3 3 5 4 2 5 4 3 5 3 2 2 1 1 2 1 3 2 2 4
12 11 10 9 10 10 11 12 15 17 14 2 3 1 2 2 1 4 3 2 3 0 1 1 1 4 3 1 2 3 3 2 3 4 4 4 0 5 6 5 4 2 3 2 1 1 4
13 12 10 10 9 9 11 11 14 17 14 0 2 1 1 1 2 3 3 1 3 3 2 2 3 1 3 1 1 3 1 4 1 1 2 4 4 4 4 6 2 3 5 7 9 9 1
13 12 11 10 9 8 9 10 12 18 19 1 2 2 2 1 0 2 2 2 2 2 3 4 2 2 3 3 4 4 5 4 5 2 4 2 1 2 4 5 3 7 9 10 9 9 13
15 13 12 10 10 9 7 9 10 14 15 2 2 3 0 2 1 2 1 4 3 2 1 5 4 3 1 3 5 5 5 5 4 5 2 2 2 3 4 3 6 8 5 11 5 3 5
16 14 13 12 10 9 7 7 8 10 10 2 2 2 1 1 2 1 1 1 4 1 2 4 2 2 2 5 6 3 3 4 4 3 0 1 1 2 4 3 2 5 4 4 2 4 2
18 15 14 14 11 10 9 6 5 5 9 1 0 2 1 2 2 2 3 2 3 3 2 1 3 3 4 3 3 2 1 0 1 6 3 2 3 2 2 3 8 5 4 4 4 4 7
18 16 15 13 12 11 10 8 6 2 4 2 1 1 2 0 2 3 4 2 3 5 3 3 1 2 2 2 1 2 3 0 2 2 2 5 3 1 1 2 5 1 3 3 2 2 4
18 16 14 14 13 10 10 10 8 6 2 1 1 2 1 2 2 1 3 3 1 2 1 4 5 2 1 2 2 3 4 1 3 4 5 2 2 5 4 4 7 3 5 1 3 3 3
14 12 11 10 10 9 8 9 10 9 7 2 2 1 0 1 2 1 2 3 2 1 0 3 2 1 1 1 1 3 1 0 2 2 6 7 6 5 4 4 7 1 3 1 1 2 3
15 13 10 8 8 8 8 10 11 11 10 5 1 2 1 1 1 1 3 1 2 2 2 2 1 1 1 0 1 2 1 1 2 3 4 3 3 2 4 3 5 5 3 5 5 1 3
Wind_Direction
19 14 17 11 10 10 11 6 355 345 336 330 328 331 336 335 332 337 344 347 357 357 335 315 313 316 309 123 27 7 43 71 71 85 109 97 125 29 254 187 180 214 234 314 30 14 115
19 19 14 16 13 12 13 9 0 349 341 335 332 334 337 337 335 340 342 340 356 1 343 336 327 334 257 66 15 4 22 10 54 36 133 111 129 224 311 237 184 200 197 233 276 170 107
19 16 15 14 12 10 10 9 7 357 347 341 338 339 339 340 337 343 338 324 315 325 316 323 324 288 52 21 311 179 270 297 86 54 145 127 125 216 268 216 196 132 122 165 232 110 115
19 14 13 10 8 6 6 7 2 357 354 347 345 341 340 341 337 341 343 331 296 283 291 299 309 284 66 180 256 309 92 133 108 40 53 170 222 251 247 174 150 139 132 157 193 173 84
16 14 12 8 5 3 2 3 0 352 348 345 341 339 337 340 336 333 337 326 295 284 258 280 271 204 71 145 296 324 261 308 98 249 273 243 264 257 301 208 141 193 163 159 141 233 135
13 10 9 5 3 1 359 358 358 351 343 340 336 336 334 335 334 326 320 292 297 298 212 254 319 76 69 0 85 338 51 85 283 225 236 205 209 183 209 180 177 179 184 152 151 198 178
7 6 3 360 359 358 358 355 354 352 345 337 332 329 329 330 328 324 322 251 276 126 27 41 14 66 41 334 186 36 21 287 267 291 258 198 190 50 218 6 336 189 194 159 101 63 165
0 0 357 354 354 355 355 352 351 353 348 339 331 324 323 325 324 312 279 34 35 355 65 55 97 102 37 326 64 86 204 284 218 263 328 48 56 12 290 304 323 291 228 112 66 80 50
354 351 352 351 351 352 352 349 348 351 350 343 335 326 323 323 320 303 69 64 331 304 272 107 145 40 321 308 28 347 354 308 334 22 88 105 11 298 283 33 6 50 72 161 133 136 1
349 348 348 348 348 348 346 345 346 350 351 344 334 329 329 329 320 31 67 41 301 311 49 350 4 74 254 241 201 354 46 301 146 318 60 35 347 277 66 63 14 43 326 75 129 117 159
339 345 345 346 346 345 343 344 345 347 352 347 332 326 322 352 314 29 38 325 287 253 55 329 348 307 268 33 304 43 241 334 24 159 125 328 1 6 49 17 316 131 321 31 148 120 95
328 335 340 342 342 342 341 341 341 345 350 345 335 323 315 263 99 63 325 287 254 34 8 327 331 350 2 24 25 330 184 135 59 60 70 109 240 13 24 311 329 248 254 227 360 103 47
320 327 333 336 338 339 340 341 339 342 344 340 334 316 334 293 92 166 180 226 49 69 340 330 334 330 309 1 28 9 52 49 33 53 54 91 39 129 359 287 246 271 337 36 24 18 212
315 321 329 332 334 336 338 339 340 340 343 339 324 309 314 36 108 218 211 142 65 220 49 318 281 298 56 3 132 2 43 44 28 348 17 104 351 15 333 44 321 359 48 124 150 171 224
311 314 321 327 331 333 335 338 339 340 342 339 334 210 239 90 242 242 245 59 34 26 336 337 275 310 105 81 240 330 66 23 40 9 22 57 51 162 29 351 343 322 48 298 95 352 55
298 308 315 321 327 331 332 336 338 339 341 346 286 236 95 20 234 247 68 107 110 269 305 276 0 356 24 40 22 27 44 358 345 7 318 333 92 27 118 225 44 53 214 64 352 69 304
287 299 311 321 326 326 330 333 337 339 341 2 256 270 95 120 358 332 89 70 95 45 346 332 356 334 47 353 52 57 26 79 357 334 305 355 148 280 271 19 19 9 103 162 154 117 153
279 288 298 312 320 326 329 334 338 343 340 226 298 268 157 135 46 50 93 119 226 122 157 309 285 334 341 354 26 107 108 68 339 279 7 54 297 87 76 116 26 335 352 322 101 339 50
266 274 287 300 311 320 329 334 338 342 4 317 291 12 203 151 45 71 171 105 317 188 133 124 12 345 328 352 341 17 43 4 3 17 9 327 35 41 337 31 189 319 126 9 66 51 233
255 261 272 290 301 313 323 334 337 335 352 263 305 333 351 70 259 108 158 155 140 38 79 256 153 215 256 34 70 42 70 103 357 60 302 281 265 137 167 199 206 261 167 182 265 71 276
243 252 265 282 291 304 316 334 336 333 341 144 3 71 359 349 56 47 346 239 148 174 274 268 200 359 14 323 182 81 37 169 130 48 322 35 30 54 288 281 266 244 253 208 199 226 217
235 244 252 262 272 289 312 331 342 335 333 107 31 345 227 69 166 270 127 199 224 137 203 160 281 73 345 357 21 1 350 31 54 149 352 22 91 39 297 55 318 275 254 244 252 244 244
229 234 245 250 265 280 302 319 344 350 340 36 206 161 218 136 206 254 188 150 156 95 53 5 19 319 230 51 11 1 343 331 323 348 352 355 1 31 286 26 312 292 234 208 206 238 221
219 225 233 246 240 257 273 300 338 6 10 299 7 291 227 217 247 249 131 65 152 150 13 114 315 323 42 319 302 252 282 280 303 260 336 306 227 56 266 5 305 256 81 64 359 307 188
209 218 224 242 237 235 245 256 296 357 352 355 271 302 350 263 87 110 166 158 94 133 229 359 80 45 339 315 301 264 167 284 85 28 12 276 304 254 203 229 284 311 49 30 13 46 22
213 210 218 228 239 232 232 228 236 265 358 300 78 303 295 153 162 73 156 178 226 192 146 134 105 344 283 246 214 246 251 332 204 90 11 310 340 31 206 206 248 135 129 55 108 204 26
211 209 213 219 232 217 222 223 218 225 203 254 73 334 275 250 115 330 174 166 76 345 62 132 160 191 320 228 211 213 242 105 226 197 162 164 201 211 236 263 283 96 143 120 136 192 59
183 187 197 194 213 214 219 227 213 207 206 195 123 283 152 226 146 167 154 156 141 216 301 171 88 316 191 231 220 240 218 95 329 159 171 170 170 201 202 239 272 23 62 322 143 34 30
170 175 189 201 216 225 224 226 219 200 197 198 192 168 272 212 143 349 2 28 40 66 108 155 137 132 16 135 335 17 276 167 292 271 358 276 216 204 197 186 193 187 126 172 129 106 32